| time (UTC) | temp F | wind direction | speed MPH | gust MPH | rain 1hr in | rain 24hr in | rain mn in | humidity % | barometer mb |
| 20260505210032 | 50 | 257 | 19.0 | 28.0 | 0.00 | 0.67 | 0.06 | 50 | 1009.5 |
| 20260505204534 | 50 | 255 | 13.0 | 23.0 | 0.00 | 0.76 | 0.06 | 52 | 1009.3 |
| 20260505203033 | 50 | 258 | 9.0 | 24.0 | 0.00 | 0.76 | 0.06 | 55 | 1009.4 |
| 20260505201533 | 50 | 240 | 14.0 | 21.0 | 0.00 | 0.76 | 0.06 | 58 | 1009.3 |
| 20260505200039 | 48 | 194 | 12.0 | 28.0 | 0.00 | 0.76 | 0.06 | 59 | 1009.1 |
| 20260505194529 | 51 | 194 | 13.0 | 20.0 | 0.00 | 0.76 | 0.06 | 50 | 1009.0 |
| 20260505193029 | 51 | 247 | 9.0 | 20.0 | 0.00 | 0.76 | 0.06 | 52 | 1009.0 |
| 20260505191530 | 53 | 261 | 9.0 | 20.0 | 0.00 | 0.76 | 0.06 | 53 | 1009.4 |
| 20260505190037 | 54 | 315 | 7.0 | 17.0 | 0.00 | 0.76 | 0.06 | 53 | 1009.7 |
| 20260505184530 | 54 | 286 | 9.0 | 17.0 | 0.00 | 0.83 | 0.06 | 57 | 1009.8 |
| 20260505183032 | 54 | 252 | 8.0 | 13.0 | 0.00 | 0.83 | 0.06 | 56 | 1009.8 |
| 20260505181531 | 52 | 295 | 8.0 | 15.0 | 0.00 | 0.83 | 0.06 | 60 | 1010.0 |
| 20260505180037 | 51 | 233 | 4.0 | 11.0 | 0.00 | 0.83 | 0.06 | 65 | 1010.1 |
| 20260505174539 | 50 | 243 | 6.0 | 12.0 | 0.00 | 0.91 | 0.06 | 66 | 1010.5 |
| 20260505173030 | 50 | 246 | 5.0 | 10.0 | 0.00 | 0.91 | 0.06 | 66 | 1010.7 |
| 20260505171533 | 49 | 269 | 3.0 | 9.0 | 0.00 | 0.91 | 0.06 | 69 | 1010.8 |
| 20260505170030 | 47 | 257 | 7.0 | 11.0 | 0.00 | 0.91 | 0.06 | 74 | 1011.1 |
| 20260505164530 | 46 | 274 | 5.0 | 12.0 | 0.00 | 0.91 | 0.06 | 79 | 1011.4 |
| 20260505163031 | 46 | 291 | 3.0 | 11.0 | 0.00 | 0.91 | 0.06 | 80 | 1011.6 |
| 20260505161530 | 45 | 248 | 8.0 | 13.0 | 0.00 | 0.91 | 0.06 | 84 | 1011.7 |
| 20260505153032 | 43 | 190 | 6.0 | 11.0 | 0.00 | 0.91 | 0.06 | 94 | 1012.1 |
| 20260505151529 | 42 | 184 | 5.0 | 9.0 | 0.00 | 0.91 | 0.06 | 95 | 1012.3 |
| 20260505124537 | 34 | 63 | 3.0 | 5.0 | 0.01 | 0.91 | 0.06 | 95 | 1012.8 |
| 20260505123033 | 34 | 87 | 1.0 | 3.0 | 0.00 | 0.90 | 0.05 | 95 | 1012.9 |
| 20260505121532 | 33 | 87 | 1.0 | 4.0 | 0.00 | 0.90 | 0.05 | 95 | 1012.7 |
| 20260505120030 | 34 | 85 | 3.0 | 5.0 | 0.00 | 0.90 | 0.05 | 95 | 1012.8 |
| 20260505114530 | 34 | 80 | 2.0 | 5.0 | 0.00 | 0.90 | 0.05 | 95 | 1012.9 |
| 20260505113030 | 33 | 76 | 2.0 | 4.0 | 0.00 | 0.90 | 0.05 | 95 | 1012.9 |
| 20260505111537 | 33 | 63 | 2.0 | 4.0 | 0.00 | 0.90 | 0.05 | 95 | 1012.9 |
| 20260505101532 | 34 | 39 | 2.0 | 4.0 | 0.00 | 0.90 | 0.05 | 94 | 1013.1 |
| 20260505100033 | 34 | 5 | 2.0 | 4.0 | 0.00 | 0.90 | 0.05 | 94 | 1013.0 |
| 20260505094529 | 34 | 347 | 2.0 | 5.0 | 0.00 | 0.90 | 0.05 | 94 | 1013.2 |
| 20260505093031 | 35 | 334 | 2.0 | 3.0 | 0.00 | 0.90 | 0.05 | 94 | 1013.1 |
| 20260505091531 | 36 | 0 | 0.0 | 0.0 | 0.00 | 0.90 | 0.05 | 94 | 1013.2 |
| 20260505090031 | 36 | 0 | 0.0 | 0.0 | 0.00 | 0.90 | 0.05 | 94 | 1013.5 |
| 20260505084532 | 36 | 0 | 0.0 | 0.0 | 0.00 | 0.90 | 0.05 | 94 | 1013.7 |
| 20260505083032 | 37 | 0 | 0.0 | 3.0 | 0.00 | 0.90 | 0.05 | 94 | 1014.1 |
| 20260505081542 | 37 | 193 | 1.0 | 5.0 | 0.00 | 0.90 | 0.05 | 94 | 1014.4 |
| 20260505080033 | 37 | 96 | 1.0 | 3.0 | 0.00 | 0.90 | 0.05 | 94 | 1014.5 |
| 20260505074528 | 38 | 77 | 3.0 | 7.0 | 0.00 | 0.90 | 0.05 | 94 | 1014.7 |
| 20260505073043 | 38 | 98 | 4.0 | 7.0 | 0.01 | 0.90 | 0.05 | 94 | 1015.0 |
| 20260505071545 | 37 | 34 | 4.0 | 12.0 | 0.04 | 0.90 | 0.05 | 94 | 1015.4 |
| 20260505070032 | 37 | 66 | 4.0 | 9.0 | 0.05 | 0.90 | 0.05 | 94 | 1015.2 |
| 20260505064530 | 37 | 29 | 5.0 | 11.0 | 0.06 | 0.90 | 0.05 | 94 | 1015.1 |
| 20260505063031 | 38 | 57 | 8.0 | 13.0 | 0.06 | 0.89 | 0.04 | 94 | 1014.8 |
| 20260505061532 | 38 | 78 | 2.0 | 6.0 | 0.03 | 0.86 | 0.01 | 94 | 1015.7 |
| 20260505060028 | 38 | 63 | 5.0 | 9.0 | 0.06 | 0.85 | 0.00 | 94 | 1015.2 |
| 20260505054548 | 39 | 0 | 0.0 | 4.0 | 0.06 | 0.84 | 0.84 | 94 | 1015.7 |
| 20260505053045 | 38 | 101 | 1.0 | 3.0 | 0.06 | 0.83 | 0.83 | 94 | 1015.9 |
| 20260505051537 | 38 | 90 | 2.0 | 6.0 | 0.07 | 0.83 | 0.83 | 93 | 1015.6 |
| 20260505041530 | 40 | 63 | 2.0 | 4.0 | 0.11 | 0.76 | 0.76 | 92 | 1016.0 |
| 20260505040040 | 40 | 67 | 2.0 | 4.0 | 0.11 | 0.74 | 0.74 | 92 | 1016.1 |
| 20260505034532 | 40 | 155 | 2.0 | 6.0 | 0.09 | 0.71 | 0.71 | 92 | 1016.1 |
| 20260505033036 | 41 | 181 | 5.0 | 10.0 | 0.15 | 0.68 | 0.68 | 91 | 1016.0 |
| 20260505031530 | 41 | 174 | 5.0 | 9.0 | 0.13 | 0.65 | 0.65 | 91 | 1015.6 |
| 20260505030033 | 41 | 209 | 1.0 | 3.0 | 0.11 | 0.63 | 0.63 | 90 | 1015.2 |
| 20260505024531 | 42 | 131 | 2.0 | 4.0 | 0.09 | 0.61 | 0.61 | 89 | 1015.0 |
| 20260505023031 | 42 | 29 | 4.0 | 10.0 | 0.01 | 0.52 | 0.52 | 89 | 1014.4 |
| 20260505021532 | 42 | 0 | 0.0 | 8.0 | 0.00 | 0.52 | 0.52 | 89 | 1014.0 |
| 20260505020028 | 42 | 44 | 4.0 | 6.0 | 0.00 | 0.52 | 0.52 | 89 | 1013.8 |
| 20260505014532 | 43 | 67 | 3.0 | 5.0 | 0.00 | 0.52 | 0.52 | 89 | 1013.6 |
| 20260505013032 | 43 | 72 | 2.0 | 4.0 | 0.00 | 0.52 | 0.52 | 88 | 1013.4 |
| 20260505011531 | 43 | 351 | 1.0 | 2.0 | 0.01 | 0.52 | 0.52 | 88 | 1013.4 |
| 20260505010031 | 44 | 332 | 4.0 | 6.0 | 0.03 | 0.52 | 0.52 | 88 | 1013.3 |
| 20260505004528 | 44 | 94 | 1.0 | 5.0 | 0.11 | 0.52 | 0.52 | 88 | 1013.1 |
| 20260505003029 | 43 | 107 | 3.0 | 8.0 | 0.15 | 0.52 | 0.52 | 88 | 1013.1 |
| 20260505001530 | 43 | 106 | 7.0 | 12.0 | 0.24 | 0.51 | 0.51 | 87 | 1013.4 |
| 20260505000033 | 43 | 155 | 2.0 | 11.0 | 0.25 | 0.49 | 0.49 | 87 | 1014.1 |
| 20260504234529 | 43 | 162 | 8.0 | 11.0 | 0.17 | 0.41 | 0.41 | 86 | 1014.4 |
| 20260504233028 | 44 | 146 | 9.0 | 17.0 | 0.12 | 0.36 | 0.36 | 82 | 1013.8 |
| 20260504231530 | 46 | 174 | 5.0 | 9.0 | 0.03 | 0.27 | 0.27 | 81 | 1013.8 |
| 20260504230030 | 47 | 123 | 2.0 | 8.0 | 0.00 | 0.24 | 0.24 | 82 | 1013.5 |
| 20260504224531 | 47 | 129 | 4.0 | 9.0 | 0.00 | 0.24 | 0.24 | 81 | 1013.4 |
| 20260504223030 | 47 | 134 | 8.0 | 15.0 | 0.00 | 0.24 | 0.24 | 82 | 1013.6 |
| 20260504221528 | 47 | 143 | 7.0 | 10.0 | 0.00 | 0.24 | 0.24 | 83 | 1013.8 |
| 20260504220030 | 46 | 122 | 7.0 | 12.0 | 0.00 | 0.24 | 0.24 | 86 | 1014.1 |
| 20260504214535 | 45 | 115 | 8.0 | 13.0 | 0.00 | 0.24 | 0.24 | 88 | 1014.4 |
| 20260504213031 | 45 | 171 | 9.0 | 16.0 | 0.04 | 0.24 | 0.24 | 86 | 1014.8 |
| 20260504211531 | 48 | 130 | 3.0 | 9.0 | 0.04 | 0.24 | 0.24 | 89 | 1014.7 |